[[{"header":{"parameterUnit":"m.s-1","parameterCategory":1,"la1":30.2991,"la2":30.254,"lo1":-89.0895,"lo2":-89.0444,"dy":0.0017,"dx":0.0017,"nx":28,"ny":28,"refTime":"2025-04-16T21:00:00:Z","depth":0,"parameterNumber":2,"parameterNumberName":"U-component_of_WINDS"},"data":[0,0,0,0,0,0,0,0,0,0,0,0,0,0,0,0,0,0,0,0,0,0,0,0,0,0,0,0,0,0,0,0,0,0,0,0,0,0,0,0,0,0,0,0,0,0,0,0,0,0,0,0,0,0,0,0,0,0,-2.4044,-2.4045,0,-2.412,-2.4121,-2.4122,-2.4112,-2.4111,-2.411,-2.4108,-2.4184,-2.4188,-2.4191,0,0,0,0,0,0,0,0,0,0,0,0,0,-2.389,-2.3893,-2.4044,-2.4045,-2.4046,-2.412,-2.4121,-2.4122,-2.4112,-2.4111,-2.4109,-2.4108,-2.4183,-2.4187,-2.4191,0,0,0,0,0,0,0,0,0,0,0,0,0,-2.396,-2.3894,-2.4044,-2.405,-2.4051,-2.4119,-2.4121,-2.4122,-2.4113,-2.4111,-2.4109,-2.4107,-2.4182,-2.4187,-2.4191,-2.4258,0,0,-2.4206,-2.4208,0,0,0,0,0,0,0,0,-2.3956,-2.3966,-2.4048,-2.405,-2.4051,-2.4105,-2.4094,-2.4167,-2.4113,-2.4089,-2.4108,-2.4106,-2.4159,-2.4166,-2.4184,-2.4261,-2.4265,-2.4206,-2.4209,-2.4211,-2.4213,0,0,0,0,0,0,0,-2.3951,-2.3963,-2.4074,-2.4049,-2.4051,-2.4049,-2.4057,-2.4108,-2.4134,-2.4091,-2.4091,-2.41,-2.416,-2.4179,-2.4186,-2.4266,-2.4206,-2.4211,-2.4213,-2.4215,-2.4401,-2.4403,0,0,0,0,0,0,-2.3945,-2.3959,-2.4071,-2.4076,-2.3998,-2.4053,-2.4062,-2.4089,-2.4133,-2.4138,-2.4101,-2.4099,-2.4172,-2.418,-2.4188,-2.4269,-2.4211,-2.4216,-2.4218,-2.4399,-2.4402,-2.4404,0,0,0,0,0,0,-2.3942,-2.3955,-2.4068,-2.4017,-2.4032,-2.4058,-2.4088,-2.4092,-2.4111,-2.4141,-2.4145,-2.4117,-2.4171,-2.4182,-2.4241,-2.4271,-2.4218,-2.4222,-2.4397,-2.44,-2.4403,-2.443,0,0,0,0,0,0,-2.3937,-2.3954,-2.398,-2.4018,-2.4034,-2.412,-2.409,-2.4095,-2.412,-2.4118,-2.4156,-2.4161,-2.417,-2.4234,-2.4245,-2.4277,-2.4226,-2.4394,-2.4398,-2.4402,-2.4427,-2.4434,-2.444,0,0,0,0,0,-2.3932,-2.3984,-2.3981,-2.3995,-2.4067,-2.4122,-2.4131,-2.4141,-2.4122,-2.4148,-2.4167,-2.416,-2.4266,-2.424,-2.4253,-2.4286,-2.4392,-2.4397,-2.4402,-2.4424,-2.4432,-2.444,0,0,0,0,0,0,-2.3948,-2.3989,-2.3986,-2.4052,-2.4084,-2.412,-2.4153,-2.415,-2.4187,-2.4183,-2.4194,-2.4203,-2.4262,-2.428,-2.425,-2.4353,-2.4327,-2.4334,-2.4339,-2.4347,-2.4354,-2.4348,-2.423,0,0,0,0,0,-2.3959,-2.4001,-2.4034,-2.4089,-2.4105,-2.4126,-2.4151,-2.4156,-2.4188,-2.4201,-2.4225,-2.4256,-2.4297,-2.4323,-2.4362,-2.443,-2.4438,-2.4459,-2.4466,-2.4471,-2.4477,-2.4514,-2.4524,-2.442,-2.442,-2.4419,0,0,-2.3983,-2.401,-2.4036,-2.4093,-2.4118,-2.416,-2.4137,-2.4183,-2.4214,-2.4208,-2.4265,-2.4284,-2.432,-2.4383,-2.4412,-2.44,-2.4508,-2.4477,-2.4481,-2.4484,-2.452,-2.453,-2.4538,-2.4423,-2.4422,-2.4422,0,0,-2.4047,-2.4072,-2.4121,-2.4147,-2.4185,-2.4199,-2.4211,-2.4248,-2.426,-2.4318,-2.4314,-2.4351,-2.4421,-2.4447,-2.4469,-2.4544,-2.4539,-2.4557,-2.4591,-2.4627,-2.4635,-2.4643,-2.4669,-2.4679,-2.4563,-2.4563,-2.4563,0,-2.4071,-2.4135,-2.4146,-2.4193,-2.4218,-2.4215,-2.4264,-2.4289,-2.4337,-2.4355,-2.434,-2.4428,-2.4452,-2.4522,-2.454,-2.4559,-2.4572,-2.4552,-2.4634,-2.4641,-2.4648,-2.4673,-2.4683,-2.4565,-2.4565,-2.4565,-2.4564,0,-2.4163,-2.4207,-2.4242,-2.429,-2.4319,-2.4367,-2.4385,-2.4413,-2.4416,-2.4432,-2.4491,-2.452,-2.4564,-2.4581,-2.4585,-2.4652,-2.4643,-2.4631,-2.4605,-2.466,-2.4684,-2.4693,-2.4568,-2.4567,-2.4566,-2.4566,0,0,-2.4238,-2.4292,-2.4305,-2.4327,-2.4369,-2.4404,-2.4451,-2.4496,-2.452,-2.4554,-2.4594,-2.4653,-2.4643,-2.4668,-2.4674,-2.4706,-2.4764,-2.469,-2.4691,-2.4702,-2.4839,-2.4847,-2.4858,-2.4761,-2.4763,-2.4764,-2.4836,0,-2.4306,-2.4391,-2.4402,-2.4477,-2.4518,-2.4517,-2.4558,-2.4588,-2.4604,-2.4641,-2.4659,-2.4701,-2.4684,-2.4699,-2.4731,-2.475,-2.4791,-2.4745,-2.4797,-2.4799,-2.4787,-2.4871,-2.4879,-2.4946,-2.4845,-2.4847,-2.4848,0,-2.4397,-2.4434,-2.4513,-2.455,-2.4568,-2.4605,-2.4647,-2.4682,-2.4717,-2.4726,-2.4755,-2.4758,-2.4807,-2.4779,-2.4847,-2.4815,-2.4837,-2.485,-2.4853,-2.4858,-2.4826,-2.4877,-2.4967,-2.4977,-2.4863,-2.4862,-2.4861,0,-2.4443,-2.4513,-2.4569,-2.4588,-2.4633,-2.4659,-2.4679,-2.4712,-2.4738,-2.4775,-2.4792,-2.4834,-2.4856,-2.4889,-2.4902,-2.4881,-2.4969,-2.4943,-2.4978,-2.4977,-2.4995,-2.4994,-2.5089,-2.5011,-2.5011,-2.5011,-2.501,0,-2.4518,-2.4566,-2.4591,-2.4625,-2.4679,-2.4692,-2.4745,-2.4764,-2.4794,-2.4832,-2.4833,-2.4869,-2.4885,-2.4923,-2.4934,-2.4988,-2.4998,-2.5007,-2.5009,-2.5006,-2.5005,-2.502,-2.5016,-2.5013,-2.5013,-2.5012,-2.5012,0,-2.4578,-2.4597,-2.4658,-2.4696,-2.4707,-2.4745,-2.4777,-2.4811,-2.4827,-2.4875,-2.4887,-2.4912,-2.4957,-2.4974,-2.5028,-2.5036,-2.5098,-2.5097,-2.5087,-2.5087,-2.5121,-2.5117,-2.5229,-2.5244,-2.5156,-2.5157,-2.5158,0,-2.4624,-2.4661,-2.4703,-2.4729,-2.475,-2.4792,-2.4819,-2.4833,-2.4861,-2.4904,-2.4932,-2.4977,-2.5013,-2.5085,-2.5108,-2.515,-2.5149,-2.5186,-2.5155,-2.5152,-2.5149,-2.5146,-2.515,-2.5191,-2.5192,-2.5192,-2.5193,0,-2.4703,-2.4711,-2.475,-2.4793,-2.4825,-2.4859,-2.4892,-2.4913,-2.4933,-2.4964,-2.501,-2.5039,-2.5095,-2.5139,-2.5183,-2.5203,-2.5201,-2.5203,-2.5213,-2.521,-2.5202,-2.5206,-2.5101,-2.52,-2.5199,-2.5199,-2.5198,-2.5198,-2.4757,-2.479,-2.4825,-2.4869,-2.4896,-2.4927,-2.496,-2.4981,-2.502,-2.5067,-2.5073,-2.5123,-2.5157,-2.5215,-2.5237,-2.5276,-2.5266,-2.5281,-2.5284,-2.5288,-2.529,-2.5197,-2.5284,-2.5283,-2.5283,-2.5283,-2.5283,0,-2.4836,-2.4859,-2.4899,-2.4946,-2.498,-2.4976,-2.5013,-2.5042,-2.5086,-2.5118,-2.5154,-2.5207,-2.5251,-2.5277,-2.5321,-2.5347,-2.5347,-2.5358,-2.5355,-2.536,-2.5296,-2.5283,-2.5357,-2.5357,-2.5357,-2.5357,-2.5357,-2.5357,-2.4881,-2.4937,-2.4949,-2.5017,-2.504,-2.5089,-2.511,-2.5139,-2.5164,-2.5224,-2.526,-2.5278,-2.5308,-2.5354,-2.5393,-2.54,-2.5416,-2.5427,-2.5433,-2.5372,-2.5365,-2.5357,-2.5345,-2.543,-2.543,-2.5493,-2.5494,-2.5494]},{"header":{"parameterUnit":"m.s-1","parameterCategory":1,"la1":30.2991,"la2":30.254,"lo1":-89.0895,"lo2":-89.0444,"dy":0.0017,"dx":0.0017,"nx":28,"ny":28,"refTime":"2025-04-16T21:00:00:Z","depth":0,"parameterNumber":3,"parameterNumberName":"V-component_of_WINDS"},"data":[0,0,0,0,0,0,0,0,0,0,0,0,0,0,0,0,0,0,0,0,0,0,0,0,0,0,0,0,0,0,0,0,0,0,0,0,0,0,0,0,0,0,0,0,0,0,0,0,0,0,0,0,0,0,0,0,0,0,1.0329,1.0328,0,1.022,1.0218,1.0217,1.0113,1.0112,1.011,1.0109,0.9992,0.999,0.9988,0,0,0,0,0,0,0,0,0,0,0,0,0,1.0444,1.0442,1.0329,1.0328,1.0327,1.022,1.0218,1.0217,1.0113,1.0112,1.011,1.0109,0.9993,0.999,0.9988,0,0,0,0,0,0,0,0,0,0,0,0,0,1.037,1.0442,1.033,1.0262,1.0255,1.022,1.0218,1.0216,1.0114,1.0112,1.011,1.0108,0.9993,0.9991,0.9988,1.0009,0,0,0.9979,0.9978,0,0,0,0,0,0,0,0,1.0374,1.0366,1.0273,1.0267,1.0259,1.0178,1.0216,1.0147,1.0114,1.0167,1.0109,1.0107,1.0055,1.0047,1.0031,1.0004,0.9999,0.9979,0.9977,0.9976,0.9975,0,0,0,0,0,0,0,1.038,1.037,1.0286,1.0272,1.0263,1.0236,1.0223,1.0202,1.0123,1.0162,1.0155,1.0143,1.0051,1.0034,1.0027,0.9997,0.9979,0.9976,0.9975,0.9974,0.9981,0.9982,0,0,0,0,0,0,1.0396,1.0375,1.0289,1.0282,1.0313,1.0235,1.0221,1.0206,1.0123,1.0109,1.0145,1.0139,1.004,1.0031,1.0023,1.0041,0.9976,0.9973,0.9972,0.9979,0.9981,0.9983,0,0,0,0,0,0,1.0399,1.0389,1.0294,1.0327,1.0312,1.0235,1.0219,1.0205,1.0188,1.011,1.0095,1.0142,1.0038,1.0027,1.0013,1.0036,0.9972,0.9969,0.9976,0.9979,0.9982,1.008,0,0,0,0,0,0,1.0402,1.0391,1.0399,1.0328,1.0311,1.0288,1.022,1.0204,1.0184,1.0174,1.0104,1.009,1.0035,1.0018,1.0011,1.0031,0.9967,0.9974,0.9978,0.9981,1.0074,1.0085,1.0095,0,0,0,0,0,1.0407,1.043,1.04,1.0391,1.0321,1.029,1.028,1.0218,1.0186,1.0193,1.0143,1.0092,1.0035,1.0018,1.0008,1.0028,0.9972,0.9977,0.9981,1.0069,1.0083,1.0095,0,0,0,0,0,0,1.0505,1.042,1.0386,1.0387,1.0347,1.0272,1.0279,1.0235,1.0201,1.0194,1.0116,1.0101,1.0096,1.0061,1.0043,1.0043,0.9996,0.9999,1.0067,1.0079,1.009,1.0098,0.9965,0,0,0,0,0,1.0528,1.0511,1.0437,1.0445,1.0427,1.0357,1.0341,1.0297,1.0251,1.0233,1.0182,1.0138,1.011,1.0093,1.0063,1.0069,1.0051,1.0077,1.0088,1.0097,1.01,1.0098,1.0109,0.9997,0.9997,0.9997,0,0,1.0572,1.0524,1.0518,1.0464,1.0427,1.041,1.0343,1.0328,1.0314,1.023,1.0214,1.0176,1.0121,1.0118,1.0114,1.0088,1.0127,1.0102,1.011,1.0108,1.0104,1.0115,1.0124,1.0,0.9999,0.9999,0,0,1.0645,1.0608,1.061,1.0575,1.0521,1.0475,1.0476,1.0408,1.0379,1.0363,1.0299,1.0281,1.0234,1.0198,1.0173,1.0233,1.0184,1.0225,1.028,1.028,1.0289,1.0296,1.0316,1.0324,1.0228,1.0229,1.0229,0,1.0708,1.0681,1.0617,1.0606,1.0583,1.0508,1.0508,1.0477,1.0416,1.0401,1.0373,1.0313,1.0271,1.0257,1.0272,1.0255,1.0252,1.0232,1.0293,1.03,1.0305,1.0323,1.0331,1.0234,1.0233,1.0233,1.0232,0,1.0759,1.0742,1.075,1.0694,1.0672,1.0668,1.0601,1.0586,1.0544,1.05,1.0483,1.0431,1.0388,1.0382,1.034,1.0361,1.0347,1.0308,1.0258,1.0323,1.0338,1.0344,1.0241,1.0239,1.0238,1.0237,0,0,1.089,1.0799,1.0803,1.0776,1.0712,1.0696,1.0687,1.0647,1.0635,1.0595,1.0585,1.0547,1.051,1.0483,1.0436,1.0436,1.0485,1.0396,1.0393,1.0413,1.0503,1.0533,1.0542,1.0453,1.0454,1.0455,1.0507,0,1.0951,1.0932,1.0874,1.0872,1.0854,1.0782,1.0774,1.0732,1.0691,1.0668,1.0622,1.0596,1.055,1.0533,1.053,1.048,1.0502,1.0475,1.044,1.0439,1.0455,1.055,1.0581,1.0633,1.0513,1.0514,1.0515,0,1.1019,1.0986,1.0983,1.0918,1.0908,1.0902,1.086,1.084,1.0791,1.0761,1.0731,1.0679,1.0663,1.0619,1.0596,1.0579,1.0561,1.0535,1.0535,1.0528,1.048,1.0544,1.0648,1.0656,1.0524,1.0523,1.0523,0,1.1114,1.1067,1.1059,1.1038,1.0963,1.096,1.0929,1.0878,1.0857,1.082,1.0806,1.0767,1.0746,1.0716,1.0654,1.0628,1.0637,1.0589,1.061,1.0612,1.0614,1.0614,1.0715,1.0605,1.0605,1.0605,1.0605,0,1.1187,1.1187,1.11,1.1095,1.1093,1.1025,1.1024,1.0985,1.0941,1.0925,1.0861,1.0847,1.0768,1.0745,1.0697,1.0684,1.0675,1.0648,1.0635,1.0653,1.0656,1.0639,1.0633,1.0607,1.0607,1.0606,1.0606,0,1.1291,1.1233,1.1219,1.1149,1.1132,1.1133,1.1072,1.1064,1.1019,1.1,1.0992,1.0921,1.089,1.0826,1.0778,1.0745,1.0743,1.0721,1.0761,1.0752,1.0777,1.0775,1.0869,1.0877,1.0764,1.0765,1.0766,0,1.1341,1.1339,1.127,1.1256,1.1227,1.1205,1.1184,1.1117,1.1098,1.1042,1.104,1.1004,1.0972,1.0927,1.0869,1.0832,1.0807,1.0843,1.0801,1.0819,1.0805,1.0806,1.0804,1.0852,1.0853,1.0854,1.0855,0,1.1435,1.1406,1.1379,1.1343,1.132,1.1287,1.1251,1.1243,1.1167,1.1148,1.1117,1.1092,1.1044,1.1009,1.0963,1.0927,1.0878,1.087,1.0872,1.089,1.0912,1.0899,1.0784,1.0867,1.0866,1.0865,1.0864,1.0864,1.1511,1.1507,1.1457,1.1429,1.1396,1.1363,1.1352,1.1306,1.1279,1.1235,1.1197,1.1169,1.1119,1.1052,1.102,1.0996,1.0972,1.0976,1.0977,1.0979,1.0986,1.0918,1.0987,1.0987,1.0987,1.0986,1.0986,0,1.1601,1.1566,1.1541,1.1493,1.1471,1.1429,1.1386,1.137,1.1347,1.1305,1.1275,1.1239,1.1205,1.1146,1.1106,1.1098,1.1074,1.1089,1.1088,1.1081,1.101,1.1011,1.1109,1.1109,1.1109,1.1109,1.1109,1.1109,1.1645,1.1634,1.16,1.1571,1.1535,1.1509,1.1488,1.1457,1.1423,1.1386,1.1358,1.1321,1.1271,1.1227,1.1194,1.1177,1.1164,1.1187,1.1163,1.1098,1.1086,1.1075,1.1075,1.1185,1.1185,1.1235,1.1235,1.1236]}]]